Вернуться в каталог

COSMOS 2037

АктивенВоенныеLEO
NORAD 20196·PAYLOAD·🇷🇺 Russia

Запущен Aug 28, 1989 с Plesetsk Cosmodrome

Loading…

Ближайшие Пролёты (ближайшие 24 часа)

TLE

СвежийSource: Space-Track

Эпоха: Sep 14, 2026, 06:16 UTC

1 20196U 89068A   26257.26179330  .00000002  00000-0  14326-3 0  9993
2 20196  73.5673 181.9537 0023925  68.4121  98.5823 12.40540941676765

Отслеживайте COSMOS 2037 в реальном времени с AllMySat

Download on the App Store